Time,TemperatureF,DewpointF,PressureIn,WindDirection,WindDirectionDegrees,WindSpeedMPH,WindSpeedGustMPH,Humidity,HourlyPrecipIn,Conditions,Clouds,dailyrainin,SoftwareType,DateUTC
2013-01-16 00:00:00,38.7,37.4,29.69,ESE,107,6.0,14.0,95,0.00,-RA,,0.00,WeatherDisplay:10.37,2013-01-16 00:00:00,
2013-01-16 00:10:00,38.7,37.4,29.69,ESE,114,3.0,13.0,95,0.01,-RA,,0.01,WeatherDisplay:10.37,2013-01-16 00:10:00,
2013-01-16 00:20:00,38.6,37.3,29.68,ESE,117,12.0,15.0,95,0.00,-RA,,0.01,WeatherDisplay:10.37,2013-01-16 00:20:00,
2013-01-16 00:30:00,38.6,37.3,29.69,ESE,114,6.0,13.0,95,0.00,-RA,,0.01,WeatherDisplay:10.37,2013-01-16 00:30:00,
2013-01-16 00:40:00,38.6,37.6,29.69,ESE,110,7.0,12.0,96,0.00,-RA,,0.01,WeatherDisplay:10.37,2013-01-16 00:40:00,
2013-01-16 00:50:00,38.6,37.6,29.69,ESE,112,6.0,13.0,96,0.00,-RA,,0.01,WeatherDisplay:10.37,2013-01-16 00:50:00,
2013-01-16 01:00:00,38.6,37.6,29.69,ESE,113,6.0,12.0,96,0.01,-RA,,0.02,WeatherDisplay:10.37,2013-01-16 01:00:00,
2013-01-16 01:10:00,38.6,37.6,29.68,ESE,103,7.0,10.0,96,0.00,-RA,,0.02,WeatherDisplay:10.37,2013-01-16 01:10:00,
2013-01-16 01:20:00,38.6,37.6,29.68,ESE,107,5.0,12.0,96,0.00,-RA,,0.02,WeatherDisplay:10.37,2013-01-16 01:20:00,
2013-01-16 01:30:00,38.6,37.6,29.68,ESE,107,5.0,13.0,96,0.00,-RA,,0.02,WeatherDisplay:10.37,2013-01-16 01:30:00,
2013-01-16 01:40:00,38.7,37.6,29.68,ESE,114,6.0,13.0,96,0.00,-RA,,0.02,WeatherDisplay:10.37,2013-01-16 01:40:00,
2013-01-16 01:50:00,38.7,37.7,29.68,ESE,108,7.0,10.0,96,0.00,-RA,,0.02,WeatherDisplay:10.37,2013-01-16 01:50:00,
2013-01-16 02:00:00,38.7,37.7,29.68,ESE,116,5.0,13.0,96,0.00,-RA,,0.02,WeatherDisplay:10.37,2013-01-16 02:00:00,
2013-01-16 02:10:00,38.7,37.7,29.68,ESE,109,7.0,12.0,96,0.00,-RA,,0.02,WeatherDisplay:10.37,2013-01-16 02:10:00,
2013-01-16 02:20:00,38.7,37.7,29.68,ESE,112,5.0,13.0,96,0.00,-RA,,0.02,WeatherDisplay:10.37,2013-01-16 02:20:00,
2013-01-16 02:30:00,38.8,37.7,29.68,ESE,108,6.0,12.0,96,0.00,-RA,,0.02,WeatherDisplay:10.37,2013-01-16 02:30:00,
2013-01-16 02:40:00,38.8,37.8,29.68,ESE,115,6.0,10.0,96,0.00,OVC,,0.02,WeatherDisplay:10.37,2013-01-16 02:40:00,
2013-01-16 02:50:00,38.8,37.8,29.68,ESE,117,7.0,12.0,96,0.00,OVC,,0.02,WeatherDisplay:10.37,2013-01-16 02:50:00,
2013-01-16 03:00:00,38.9,37.8,29.68,ESE,113,6.0,12.0,96,0.00,OVC,,0.02,WeatherDisplay:10.37,2013-01-16 03:00:00,
2013-01-16 03:10:00,38.9,37.9,29.69,ESE,115,3.0,10.0,96,0.00,OVC,,0.02,WeatherDisplay:10.37,2013-01-16 03:10:00,
2013-01-16 03:20:00,38.9,37.9,29.69,ESE,115,6.0,9.0,96,0.00,OVC,,0.02,WeatherDisplay:10.37,2013-01-16 03:20:00,
2013-01-16 03:30:00,39.0,38.0,29.69,ESE,119,6.0,10.0,96,0.00,OVC,,0.02,WeatherDisplay:10.37,2013-01-16 03:30:00,
2013-01-16 03:40:00,39.1,38.0,29.69,ESE,116,6.0,9.0,96,0.00,BKN,,0.02,WeatherDisplay:10.37,2013-01-16 03:40:00,
2013-01-16 03:50:00,39.1,38.1,29.69,ESE,117,3.0,6.0,96,0.00,BKN,,0.02,WeatherDisplay:10.37,2013-01-16 03:50:00,
2013-01-16 04:00:00,39.1,38.1,29.69,ESE,123,1.0,5.0,96,0.00,BKN,,0.02,WeatherDisplay:10.37,2013-01-16 04:00:00,
2013-01-16 04:10:00,39.1,38.1,29.69,ESE,123,1.0,4.0,96,0.00,BKN,,0.02,WeatherDisplay:10.37,2013-01-16 04:10:00,
2013-01-16 04:20:00,39.2,38.2,29.69,ESE,123,0.0,4.0,96,0.00,BKN,,0.02,WeatherDisplay:10.37,2013-01-16 04:20:00,
2013-01-16 04:30:00,39.2,38.2,29.70,ESE,123,1.0,3.0,96,0.00,BKN,,0.02,WeatherDisplay:10.37,2013-01-16 04:30:00,
2013-01-16 04:40:00,39.2,38.2,29.70,ESE,123,2.0,4.0,96,0.00,BKN,,0.02,WeatherDisplay:10.37,2013-01-16 04:40:00,
2013-01-16 04:50:00,39.3,38.2,29.70,ESE,109,3.0,6.0,96,0.00,BKN,,0.02,WeatherDisplay:10.37,2013-01-16 04:50:00,
2013-01-16 05:10:00,39.3,38.3,29.70,ESE,107,5.0,5.0,96,0.00,BKN,,0.02,WeatherDisplay:10.37,2013-01-16 05:10:00,
2013-01-16 05:20:00,39.4,38.4,29.70,ESE,106,2.0,6.0,96,0.00,BKN,,0.02,WeatherDisplay:10.37,2013-01-16 05:20:00,
2013-01-16 05:30:00,39.5,38.4,29.70,ESE,112,3.0,5.0,96,0.00,BKN,,0.02,WeatherDisplay:10.37,2013-01-16 05:30:00,
2013-01-16 05:40:00,39.5,38.5,29.70,ESE,116,5.0,9.0,96,0.00,OVC,,0.02,WeatherDisplay:10.37,2013-01-16 05:40:00,
2013-01-16 05:50:00,39.6,38.6,29.70,ESE,113,5.0,9.0,96,0.00,OVC,,0.02,WeatherDisplay:10.37,2013-01-16 05:50:00,
2013-01-16 06:00:00,39.6,38.6,29.69,ESE,117,6.0,9.0,96,0.00,OVC,,0.02,WeatherDisplay:10.37,2013-01-16 06:00:00,
2013-01-16 06:10:00,39.6,38.6,29.70,ESE,115,6.0,10.0,96,0.00,-RA,,0.02,WeatherDisplay:10.37,2013-01-16 06:10:00,
2013-01-16 06:20:00,39.7,38.7,29.70,ESE,116,5.0,6.0,96,0.00,-RA,,0.02,WeatherDisplay:10.37,2013-01-16 06:20:00,
2013-01-16 06:30:00,39.7,38.7,29.70,SE,124,5.0,9.0,96,0.00,-RA,,0.02,WeatherDisplay:10.37,2013-01-16 06:30:00,
2013-01-16 06:40:00,39.8,38.8,29.70,ESE,120,3.0,6.0,96,0.00,BKN,,0.02,WeatherDisplay:10.37,2013-01-16 06:40:00,
2013-01-16 06:50:00,39.8,38.8,29.70,ESE,119,3.0,6.0,96,0.00,BKN,,0.02,WeatherDisplay:10.37,2013-01-16 06:50:00,
2013-01-16 07:00:00,39.8,39.0,29.70,ESE,121,3.0,5.0,97,0.00,BKN,,0.02,WeatherDisplay:10.37,2013-01-16 07:00:00,
2013-01-16 07:10:00,39.9,39.1,29.70,ESE,119,3.0,5.0,97,0.00,-DZ,,0.02,WeatherDisplay:10.37,2013-01-16 07:10:00,
2013-01-16 07:20:00,39.9,39.1,29.71,ESE,117,1.0,5.0,97,0.00,-DZ,,0.02,WeatherDisplay:10.37,2013-01-16 07:20:00,
2013-01-16 07:30:00,40.0,39.2,29.72,ESE,117,0.0,0.0,97,0.00,-DZ,,0.02,WeatherDisplay:10.37,2013-01-16 07:30:00,
2013-01-16 07:40:00,40.0,39.2,29.72,ESE,117,0.0,0.0,97,0.00,-DZ,,0.02,WeatherDisplay:10.37,2013-01-16 07:40:00,
2013-01-16 07:50:00,40.0,39.2,29.72,ESE,117,0.0,0.0,97,0.00,-DZ,,0.02,WeatherDisplay:10.37,2013-01-16 07:50:00,
2013-01-16 08:00:00,40.0,39.2,29.72,ESE,116,0.0,0.0,97,0.00,-DZ,,0.02,WeatherDisplay:10.37,2013-01-16 08:00:00,
2013-01-16 08:10:00,40.0,39.2,29.72,ESE,117,1.0,3.0,97,0.01,RA,,0.02,WeatherDisplay:10.37,2013-01-16 08:10:00,
2013-01-16 08:20:00,40.1,39.3,29.73,ESE,117,1.0,3.0,97,0.00,BKN,,0.02,WeatherDisplay:10.37,2013-01-16 08:20:00,
2013-01-16 08:30:00,40.1,39.3,29.73,ESE,117,2.0,4.0,97,0.00,BKN,,0.02,WeatherDisplay:10.37,2013-01-16 08:30:00,
2013-01-16 08:40:00,40.3,39.5,29.73,SE,143,2.0,6.0,97,0.00,-DZ,,0.02,WeatherDisplay:10.37,2013-01-16 08:40:00,
2013-01-16 08:50:00,40.5,39.7,29.74,SE,126,1.0,5.0,97,0.00,-DZ,,0.02,WeatherDisplay:10.37,2013-01-16 08:50:00,
2013-01-16 09:00:00,40.6,39.8,29.74,SE,124,2.0,5.0,97,0.00,-DZ,,0.02,WeatherDisplay:10.37,2013-01-16 09:00:00,
2013-01-16 09:10:00,40.8,40.0,29.74,ESE,123,0.0,5.0,97,0.00,-DZ,,0.02,WeatherDisplay:10.37,2013-01-16 09:10:00,
2013-01-16 09:20:00,40.9,40.1,29.75,SE,124,3.0,6.0,97,0.00,-DZ,,0.02,WeatherDisplay:10.37,2013-01-16 09:20:00,
2013-01-16 09:30:00,41.0,40.2,29.75,SE,145,3.0,8.0,97,0.00,-DZ,,0.02,WeatherDisplay:10.37,2013-01-16 09:30:00,
2013-01-16 09:40:00,41.4,40.6,29.75,South,171,3.0,8.0,97,0.00,-DZ,,0.02,WeatherDisplay:10.37,2013-01-16 09:40:00,
2013-01-16 09:50:00,41.6,40.8,29.75,South,178,5.0,8.0,97,0.01,-DZ,,0.03,WeatherDisplay:10.37,2013-01-16 09:50:00,
2013-01-16 10:00:00,41.9,41.1,29.75,South,173,5.0,9.0,97,0.00,-DZ,,0.03,WeatherDisplay:10.37,2013-01-16 10:00:00,
2013-01-16 10:10:00,42.0,41.2,29.75,South,179,5.0,10.0,97,0.00,-DZ,,0.03,WeatherDisplay:10.37,2013-01-16 10:10:00,
2013-01-16 10:20:00,42.2,41.4,29.76,South,175,5.0,12.0,97,0.00,-DZ,,0.03,WeatherDisplay:10.37,2013-01-16 10:20:00,
2013-01-16 10:30:00,42.4,41.6,29.76,South,169,3.0,10.0,97,0.00,-DZ,,0.03,WeatherDisplay:10.37,2013-01-16 10:30:00,
2013-01-16 10:40:00,42.5,41.7,29.76,South,172,5.0,8.0,97,0.00,-DZ,,0.03,WeatherDisplay:10.37,2013-01-16 10:40:00,
2013-01-16 10:50:00,42.6,41.8,29.76,South,178,1.0,9.0,97,0.00,-DZ,,0.03,WeatherDisplay:10.37,2013-01-16 10:50:00,
2013-01-16 11:00:00,42.8,42.0,29.76,South,173,7.0,10.0,97,0.01,-DZ,,0.04,WeatherDisplay:10.37,2013-01-16 11:00:00,
2013-01-16 11:10:00,42.9,42.1,29.76,South,174,5.0,10.0,97,0.00,-DZ,,0.04,WeatherDisplay:10.37,2013-01-16 11:10:00,
2013-01-16 11:30:00,43.3,42.5,29.76,South,170,8.0,13.0,97,0.01,-DZ,,0.05,WeatherDisplay:10.37,2013-01-16 11:30:00,
2013-01-16 11:40:00,43.4,42.6,29.75,South,177,10.0,13.0,97,0.00,-DZ,,0.05,WeatherDisplay:10.37,2013-01-16 11:40:00,
2013-01-16 11:50:00,43.4,42.6,29.75,South,178,6.0,12.0,97,0.00,-DZ,,0.05,WeatherDisplay:10.37,2013-01-16 11:50:00,
2013-01-16 12:00:00,43.5,42.7,29.76,South,181,9.0,16.0,97,0.00,-DZ,,0.05,WeatherDisplay:10.37,2013-01-16 12:00:00,
2013-01-16 12:10:00,43.6,42.8,29.76,SSW,195,7.0,14.0,97,0.00,-DZ,,0.05,WeatherDisplay:10.37,2013-01-16 12:10:00,
2013-01-16 12:20:00,43.6,42.8,29.76,South,183,6.0,10.0,97,0.00,-DZ,,0.05,WeatherDisplay:10.37,2013-01-16 12:20:00,
2013-01-16 12:30:00,43.7,42.9,29.76,South,181,7.0,10.0,97,0.00,-DZ,,0.05,WeatherDisplay:10.37,2013-01-16 12:30:00,
2013-01-16 12:40:00,43.8,43.0,29.75,South,183,9.0,14.0,97,0.00,-DZ,,0.05,WeatherDisplay:10.37,2013-01-16 12:40:00,
2013-01-16 12:50:00,43.9,43.1,29.75,South,175,6.0,13.0,97,0.00,-DZ,,0.05,WeatherDisplay:10.37,2013-01-16 12:50:00,
2013-01-16 13:00:00,44.0,43.2,29.75,South,179,2.0,10.0,97,0.00,-DZ,,0.05,WeatherDisplay:10.37,2013-01-16 13:00:00,
2013-01-16 13:10:00,44.2,43.4,29.75,South,179,5.0,10.0,97,0.00,-DZ,,0.05,WeatherDisplay:10.37,2013-01-16 13:10:00,
2013-01-16 13:20:00,44.3,43.5,29.75,SSW,199,3.0,10.0,97,0.00,-DZ,,0.05,WeatherDisplay:10.37,2013-01-16 13:20:00,
2013-01-16 13:30:00,44.4,43.6,29.75,South,175,3.0,9.0,97,0.00,-DZ,,0.05,WeatherDisplay:10.37,2013-01-16 13:30:00,
2013-01-16 13:40:00,44.5,43.7,29.76,SSW,204,3.0,9.0,97,0.00,-DZ,,0.05,WeatherDisplay:10.37,2013-01-16 13:40:00,
2013-01-16 13:50:00,44.6,43.8,29.76,SSW,193,1.0,9.0,97,0.00,-DZ,,0.05,WeatherDisplay:10.37,2013-01-16 13:50:00,
2013-01-16 14:00:00,44.8,44.0,29.76,SSW,194,3.0,6.0,97,0.00,-DZ,,0.05,WeatherDisplay:10.37,2013-01-16 14:00:00,
2013-01-16 14:10:00,45.0,44.2,29.76,SSW,198,5.0,10.0,97,0.00,-DZ,,0.05,WeatherDisplay:10.37,2013-01-16 14:10:00,
2013-01-16 14:20:00,45.1,44.3,29.76,SSW,195,2.0,8.0,97,0.00,-DZ,,0.05,WeatherDisplay:10.37,2013-01-16 14:20:00,
2013-01-16 14:30:00,45.3,44.5,29.76,SW,220,2.0,8.0,97,0.00,-DZ,,0.05,WeatherDisplay:10.37,2013-01-16 14:30:00,
2013-01-16 14:40:00,45.4,44.6,29.76,South,184,3.0,8.0,97,0.00,-DZ,,0.05,WeatherDisplay:10.37,2013-01-16 14:40:00,
2013-01-16 14:50:00,45.5,44.7,29.76,SSW,194,3.0,8.0,97,0.00,-DZ,,0.05,WeatherDisplay:10.37,2013-01-16 14:50:00,
2013-01-16 15:00:00,45.7,44.9,29.76,South,191,6.0,6.0,97,0.00,-DZ,,0.05,WeatherDisplay:10.37,2013-01-16 15:00:00,
2013-01-16 15:10:00,45.9,45.1,29.76,SSW,206,2.0,6.0,97,0.00,-DZ,,0.05,WeatherDisplay:10.37,2013-01-16 15:10:00,
2013-01-16 15:20:00,45.9,45.1,29.76,SW,222,1.0,5.0,97,0.00,-DZ,,0.05,WeatherDisplay:10.37,2013-01-16 15:20:00,
2013-01-16 15:30:00,46.0,45.2,29.77,South,186,0.0,4.0,97,0.00,-DZ,,0.05,WeatherDisplay:10.37,2013-01-16 15:30:00,
2013-01-16 15:40:00,46.0,45.2,29.77,South,186,2.0,4.0,97,0.00,BKN,,0.05,WeatherDisplay:10.37,2013-01-16 15:40:00,
2013-01-16 15:50:00,46.0,45.2,29.78,South,186,0.0,3.0,97,0.00,BKN,,0.05,WeatherDisplay:10.37,2013-01-16 15:50:00,
2013-01-16 16:00:00,46.0,45.2,29.78,South,186,0.0,0.0,97,0.00,BKN,,0.05,WeatherDisplay:10.37,2013-01-16 16:00:00,
2013-01-16 16:10:00,46.0,45.2,29.78,South,186,0.0,0.0,97,0.00,BKN,,0.05,WeatherDisplay:10.37,2013-01-16 16:10:00,
2013-01-16 16:20:00,46.0,45.2,29.79,South,186,0.0,0.0,97,0.00,BKN,,0.05,WeatherDisplay:10.37,2013-01-16 16:20:00,
2013-01-16 16:30:00,46.0,45.2,29.79,South,186,0.0,0.0,97,0.00,BKN,,0.05,WeatherDisplay:10.37,2013-01-16 16:30:00,
2013-01-16 16:40:00,46.0,45.2,29.79,South,186,0.0,0.0,97,0.00,BKN,,0.05,WeatherDisplay:10.37,2013-01-16 16:40:00,
2013-01-16 16:50:00,45.9,45.1,29.79,South,186,0.0,0.0,97,0.00,BKN,,0.05,WeatherDisplay:10.37,2013-01-16 16:50:00,
2013-01-16 17:00:00,45.9,45.1,29.80,South,186,0.0,0.0,97,0.00,BKN,,0.05,WeatherDisplay:10.37,2013-01-16 17:00:00,
2013-01-16 17:10:00,45.9,45.1,29.80,South,186,0.0,0.0,97,0.00,BKN,,0.05,WeatherDisplay:10.37,2013-01-16 17:10:00,
2013-01-16 17:20:00,45.9,45.1,29.81,South,186,0.0,1.0,97,0.00,BKN,,0.05,WeatherDisplay:10.37,2013-01-16 17:20:00,
2013-01-16 17:30:00,45.8,45.0,29.81,South,186,1.0,3.0,97,0.00,BKN,,0.05,WeatherDisplay:10.37,2013-01-16 17:30:00,
2013-01-16 17:40:00,45.8,45.0,29.82,South,186,0.0,3.0,97,0.00,-DZ,,0.05,WeatherDisplay:10.37,2013-01-16 17:40:00,
2013-01-16 17:50:00,45.7,44.9,29.82,South,186,1.0,3.0,97,0.00,-DZ,,0.05,WeatherDisplay:10.37,2013-01-16 17:50:00,
2013-01-16 18:00:00,45.7,44.9,29.82,South,186,0.0,3.0,97,0.00,-DZ,,0.05,WeatherDisplay:10.37,2013-01-16 18:00:00,
2013-01-16 18:10:00,45.7,44.9,29.82,South,186,0.0,1.0,97,0.00,-DZ,,0.05,WeatherDisplay:10.37,2013-01-16 18:10:00,
2013-01-16 18:20:00,45.6,44.8,29.82,South,186,0.0,1.0,97,0.00,-DZ,,0.05,WeatherDisplay:10.37,2013-01-16 18:20:00,
2013-01-16 18:30:00,45.6,44.8,29.82,South,186,0.0,0.0,97,0.00,-DZ,,0.05,WeatherDisplay:10.37,2013-01-16 18:30:00,
2013-01-16 18:40:00,45.5,44.7,29.82,South,186,0.0,0.0,97,0.00,-DZ,,0.05,WeatherDisplay:10.37,2013-01-16 18:40:00,
2013-01-16 18:50:00,45.4,44.6,29.82,South,186,0.0,0.0,97,0.00,-DZ,,0.05,WeatherDisplay:10.37,2013-01-16 18:50:00,
2013-01-16 19:00:00,45.3,44.5,29.82,South,186,0.0,0.0,97,0.00,-DZ,,0.05,WeatherDisplay:10.37,2013-01-16 19:00:00,
2013-01-16 19:10:00,45.2,44.4,29.82,South,186,0.0,1.0,97,0.00,BKN,,0.05,WeatherDisplay:10.37,2013-01-16 19:10:00,
2013-01-16 19:20:00,45.1,44.3,29.82,South,186,0.0,0.0,97,0.00,BKN,,0.05,WeatherDisplay:10.37,2013-01-16 19:20:00,
2013-01-16 19:30:00,45.0,44.2,29.83,South,186,0.0,0.0,97,0.00,BKN,,0.05,WeatherDisplay:10.37,2013-01-16 19:30:00,
2013-01-16 19:40:00,44.9,44.1,29.83,South,186,0.0,0.0,97,0.00,BKN,,0.05,WeatherDisplay:10.37,2013-01-16 19:40:00,
2013-01-16 19:50:00,44.9,44.1,29.83,South,186,0.0,0.0,97,0.00,BKN,,0.05,WeatherDisplay:10.37,2013-01-16 19:50:00,
2013-01-16 20:00:00,44.8,44.0,29.83,South,186,0.0,0.0,97,0.00,BKN,,0.05,WeatherDisplay:10.37,2013-01-16 20:00:00,
2013-01-16 20:10:00,44.7,44.0,29.83,South,186,0.0,0.0,97,0.00,BKN,,0.05,WeatherDisplay:10.37,2013-01-16 20:10:00,
2013-01-16 20:20:00,44.7,43.9,29.83,South,186,0.0,3.0,97,0.00,BKN,,0.05,WeatherDisplay:10.37,2013-01-16 20:20:00,
2013-01-16 20:30:00,44.6,43.8,29.83,South,186,0.0,1.0,97,0.00,BKN,,0.05,WeatherDisplay:10.37,2013-01-16 20:30:00,
2013-01-16 20:40:00,44.6,43.8,29.83,South,186,0.0,0.0,97,0.00,-DZ,,0.05,WeatherDisplay:10.37,2013-01-16 20:40:00,
2013-01-16 20:50:00,44.5,43.7,29.83,South,186,0.0,3.0,97,0.00,-DZ,,0.05,WeatherDisplay:10.37,2013-01-16 20:50:00,
2013-01-16 21:00:00,44.5,43.7,29.83,South,186,0.0,1.0,97,0.00,-DZ,,0.05,WeatherDisplay:10.37,2013-01-16 21:00:00,
2013-01-16 21:10:00,44.4,43.6,29.84,South,186,0.0,0.0,97,0.00,-DZ,,0.05,WeatherDisplay:10.37,2013-01-16 21:10:00,
2013-01-16 21:20:00,44.4,43.6,29.84,South,186,0.0,0.0,97,0.00,-DZ,,0.05,WeatherDisplay:10.37,2013-01-16 21:20:00,
2013-01-16 21:30:00,44.3,43.5,29.84,South,186,0.0,0.0,97,0.00,-DZ,,0.05,WeatherDisplay:10.37,2013-01-16 21:30:00,
2013-01-16 21:40:00,44.3,43.5,29.85,South,186,0.0,1.0,97,0.00,-DZ,,0.05,WeatherDisplay:10.37,2013-01-16 21:40:00,
2013-01-16 21:50:00,44.3,43.5,29.85,South,186,0.0,1.0,97,0.00,-DZ,,0.05,WeatherDisplay:10.37,2013-01-16 21:50:00,
2013-01-16 22:00:00,44.3,43.5,29.85,South,186,0.0,1.0,97,0.00,-DZ,,0.05,WeatherDisplay:10.37,2013-01-16 22:00:00,
2013-01-16 22:10:00,44.4,43.6,29.85,South,186,0.0,1.0,97,0.00,-DZ,,0.05,WeatherDisplay:10.37,2013-01-16 22:10:00,
2013-01-16 22:20:00,44.4,43.6,29.85,South,186,0.0,0.0,97,0.00,-DZ,,0.05,WeatherDisplay:10.37,2013-01-16 22:20:00,
2013-01-16 22:30:00,44.5,43.7,29.85,South,186,0.0,1.0,97,0.00,-DZ,,0.05,WeatherDisplay:10.37,2013-01-16 22:30:00,
2013-01-16 22:40:00,44.6,43.8,29.85,South,186,0.0,3.0,97,0.00,-DZ,,0.05,WeatherDisplay:10.37,2013-01-16 22:40:00,
2013-01-16 22:50:00,44.7,43.9,29.85,South,186,1.0,5.0,97,0.00,-DZ,,0.05,WeatherDisplay:10.37,2013-01-16 22:50:00,
2013-01-16 23:00:00,44.8,44.0,29.85,South,187,0.0,3.0,97,0.00,-DZ,,0.05,WeatherDisplay:10.37,2013-01-16 23:00:00,
2013-01-16 23:10:00,44.9,44.1,29.85,South,187,0.0,0.0,97,0.00,BKN,,0.05,WeatherDisplay:10.37,2013-01-16 23:10:00,
2013-01-16 23:20:00,44.9,44.1,29.85,South,187,0.0,1.0,97,0.00,BKN,,0.05,WeatherDisplay:10.37,2013-01-16 23:20:00,
2013-01-16 23:30:00,44.9,44.1,29.85,South,187,0.0,0.0,97,0.00,BKN,,0.05,WeatherDisplay:10.37,2013-01-16 23:30:00,
2013-01-16 23:40:00,44.9,44.1,29.85,South,187,0.0,0.0,97,0.00,BKN,,0.05,WeatherDisplay:10.37,2013-01-16 23:40:00,
2013-01-16 23:50:00,44.8,44.0,29.86,South,187,0.0,0.0,97,0.00,BKN,,0.05,WeatherDisplay:10.37,2013-01-16 23:50:00,